Darstellungsparameter: Aktuell verwendete Einstellungen:
Skalierung der Graphiken ... ?
xyx+y,   Skalierungsfaktor:      Skalierung: Modus: x, Faktor: 1
Darstellungszeitraum ... ?
Vom - - bis: - -   Zeitraum: 06.05.2020 - 08.05.2020
Min/Max/Avg-Anzeige ... ?
Zeige MMA aktuell
Zeige MMA Monat
Zeige MMA alles
Zeige --A aktuell
Zeige --A Monat
Zeige --A alles
Keine MMA-Anzeige
MMA:
Average (ber die Originaldaten)
MMA-Basis: 06.05.2020 - 08.05.2020
Quicknavigation für Darstellung... ?
Tage:      1T, 2T, 3T, 5T -1T -2T -3T -5T +1T +2T +3T +5T
Wochen: 1W, 2W, 3W -1W -2W -3W +1W +2W +3W
Monate: 1M, 3M, 6M -1M -3M -6M +1M +3M +6M
Jahre:    1J, 3J, 5J, 10J -1J -3J -5J -10J +1J +3J +5J +10J
Nutze für die Darstellung ... ?
Originaldaten oder ...
Mittelwerte Minima Maxima auf...
Stundenbasis Tagesbasis Wochenbasis
Monatsbasis Jahresbasis      Datenbasis: Mittelwerte auf Stundenbasis
Darstellen als:
Statistik (Auto) Statistik J:M      Darstellung:
Zur Graphik,    zurück zur Übersicht aller Sensoren.
 
Tabellarische Datenbersicht: ?
 
Sensor: Nr:Datum:Temp:Abs-Feuchte:Windchill:Wind:
Aussen-T/F 1 06-05-2020 00:00:00 7.225 C 5.63 g/m*3 7.23 C 2.13333 km/h
2 06-05-2020 01:00:00 5.90833 C 5.55 g/m*3 5.91 C 1.33333 km/h
3 06-05-2020 02:00:00 4.51667 C 5.43 g/m*3 4.52 C 0 km/h
4 06-05-2020 03:00:00 3.55 C 5.3 g/m*3 3.55 C 0 km/h
5 06-05-2020 04:00:00 3.01667 C 5.25 g/m*3 3.02 C 0 km/h
6 06-05-2020 05:00:00 2.55833 C 5.19 g/m*3 2.56 C 0.13333 km/h
7 06-05-2020 06:00:00 2.1 C 5.12 g/m*3 2.1 C 0 km/h
8 06-05-2020 07:00:00 2.43333 C 5.32 g/m*3 2.43 C 0.26667 km/h
9 06-05-2020 08:00:00 3.50833 C 5.78 g/m*3 3.51 C 0.13333 km/h
10 06-05-2020 09:00:00 5.75 C 6.6 g/m*3 5.75 C 0.53333 km/h
11 06-05-2020 10:00:00 9.43333 C 6.4 g/m*3 8.39 C 7.79167 km/h
12 06-05-2020 11:00:00 12.89167 C 4.86 g/m*3 12.89 C 9.80833 km/h
13 06-05-2020 12:00:00 13.75 C 4.66 g/m*3 13.75 C 9.125 km/h
14 06-05-2020 13:00:00 14.6 C 4.97 g/m*3 14.6 C 10.35 km/h
15 06-05-2020 14:00:00 15.80833 C 4.81 g/m*3 15.81 C 11.15833 km/h
16 06-05-2020 15:00:00 17.31667 C 4.82 g/m*3 17.32 C 11.15833 km/h
17 06-05-2020 16:00:00 18.90833 C 4.97 g/m*3 18.91 C 10.34167 km/h
18 06-05-2020 17:00:00 19.7 C 5.17 g/m*3 19.7 C 7.10833 km/h
19 06-05-2020 18:00:00 20.23333 C 5.27 g/m*3 20.23 C 6.28333 km/h
20 06-05-2020 19:00:00 19.125 C 5.42 g/m*3 19.13 C 4.95 km/h
21 06-05-2020 20:00:00 16.2 C 6.88 g/m*3 16.2 C 5.225 km/h
22 06-05-2020 21:00:00 12.05 C 6.59 g/m*3 12.05 C 5.51667 km/h
23 06-05-2020 22:00:00 9.7 C 6.55 g/m*3 9.7 C 1.86667 km/h
24 06-05-2020 23:00:00 8.04167 C 6.33 g/m*3 8.04 C 0 km/h
25 07-05-2020 00:00:00 6.85833 C 6.16 g/m*3 6.86 C 0.53333 km/h
Sensor: Nr:Datum:Temp:Abs-Feuchte:Windchill:Wind:
Aussen-T/F 26 07-05-2020 01:00:00 6.425 C 6.14 g/m*3 6.43 C 0.66667 km/h
27 07-05-2020 02:00:00 5.54167 C 5.99 g/m*3 5.54 C 0 km/h
28 07-05-2020 03:00:00 4.825 C 5.89 g/m*3 4.83 C 0 km/h
29 07-05-2020 04:00:00 4.26667 C 5.78 g/m*3 4.27 C 0 km/h
30 07-05-2020 05:00:00 3.675 C 5.65 g/m*3 3.68 C 0.4 km/h
31 07-05-2020 06:00:00 3.4 C 5.62 g/m*3 3.4 C 0.13333 km/h
32 07-05-2020 07:00:00 3.575 C 5.75 g/m*3 3.58 C 0.13333 km/h
33 07-05-2020 08:00:00 4.40833 C 6.12 g/m*3 4.41 C 0.13333 km/h
34 07-05-2020 09:00:00 6.24167 C 6.91 g/m*3 6.24 C 0 km/h
35 07-05-2020 10:00:00 9.14167 C 7.81 g/m*3 9.14 C 0.8 km/h
36 07-05-2020 11:00:00 13.8 C 7.87 g/m*3 13.8 C 2 km/h
37 07-05-2020 12:00:00 16.45 C 6.5 g/m*3 16.45 C 6.03333 km/h
38 07-05-2020 13:00:00 17.80833 C 6.93 g/m*3 17.81 C 8.46667 km/h
39 07-05-2020 14:00:00 19.06667 C 6.69 g/m*3 19.07 C 7.38333 km/h
40 07-05-2020 15:00:00 20.79167 C 6.7 g/m*3 20.79 C 7.38333 km/h
41 07-05-2020 16:00:00 22.85833 C 6.95 g/m*3 22.86 C 6.425 km/h
42 07-05-2020 17:00:00 23.225 C 6.84 g/m*3 23.23 C 6.70833 km/h
43 07-05-2020 18:00:00 23.425 C 6.86 g/m*3 23.43 C 6.7 km/h
44 07-05-2020 19:00:00 22.66667 C 7.9 g/m*3 22.67 C 4.54167 km/h
45 07-05-2020 20:00:00 18.3 C 8.22 g/m*3 18.3 C 6.29167 km/h
46 07-05-2020 21:00:00 15.26667 C 8.04 g/m*3 15.27 C 3.86667 km/h
47 07-05-2020 22:00:00 13.04167 C 8.02 g/m*3 13.04 C 0.13333 km/h
48 07-05-2020 23:00:00 11.76667 C 7.73 g/m*3 11.77 C 0.13333 km/h
49 08-05-2020 00:00:00 10.66667 C 7.47 g/m*3 10.67 C 0 km/h
50 08-05-2020 01:00:00 9.825 C 7.45 g/m*3 9.82 C 0.66667 km/h
Sensor: Nr:Datum:Temp:Abs-Feuchte:Windchill:Wind:
Aussen-T/F 51 08-05-2020 02:00:00 9.275 C 7.4 g/m*3 9.28 C 0 km/h
52 08-05-2020 03:00:00 8.275 C 7.21 g/m*3 8.28 C 0 km/h
53 08-05-2020 04:00:00 7.61667 C 7.08 g/m*3 7.62 C 0 km/h
54 08-05-2020 05:00:00 7.65 C 7.22 g/m*3 7.65 C 0.4 km/h
55 08-05-2020 06:00:00 7.20833 C 7.08 g/m*3 7.21 C 0.13333 km/h
56 08-05-2020 07:00:00 7.275 C 7.25 g/m*3 7.28 C 0.4 km/h
57 08-05-2020 08:00:00 8.43333 C 7.79 g/m*3 8.43 C 0.13333 km/h
58 08-05-2020 09:00:00 9.88333 C 8.39 g/m*3 9.88 C 0.53333 km/h
59 08-05-2020 10:00:00 12.45833 C 9.17 g/m*3 12.46 C 0.26667 km/h
60 08-05-2020 11:00:00 16.40833 C 9.44 g/m*3 16.41 C 1.6 km/h
61 08-05-2020 12:00:00 19.05833 C 8.07 g/m*3 19.06 C 2.66667 km/h
62 08-05-2020 13:00:00 20.78333 C 7.61 g/m*3 20.78 C 5.49167 km/h
63 08-05-2020 14:00:00 22.25833 C 7.06 g/m*3 22.26 C 6.15833 km/h
64 08-05-2020 15:00:00 23.13333 C 7.01 g/m*3 23.13 C 4.8 km/h
65 08-05-2020 16:00:00 24.94167 C 6.71 g/m*3 24.94 C 4.81667 km/h
66 08-05-2020 17:00:00 24.59167 C 7.29 g/m*3 24.59 C 4.66667 km/h
67 08-05-2020 18:00:00 24.575 C 7.25 g/m*3 24.58 C 6.01667 km/h
68 08-05-2020 19:00:00 23.51667 C 7.34 g/m*3 23.52 C 6.175 km/h
69 08-05-2020 20:00:00 19.40833 C 8.51 g/m*3 19.41 C 3.2 km/h
70 08-05-2020 21:00:00 16.575 C 8.4 g/m*3 16.58 C 3.86667 km/h
71 08-05-2020 22:00:00 14.98333 C 8.64 g/m*3 14.98 C 0.8 km/h
72 08-05-2020 23:00:00 13.875 C 8.37 g/m*3 13.88 C 0 km/h

Maximal/Minimal-Werte vom 06.05.2020 - 08.05.2020

Sensor Min Max Avg
Temp
(Aussen-T/F)
2 °C
06-05-2020  06:30:00
25.5 °C
08-05-2020  16:30:00
12.61 °C
Abs-Feuchte
(Aussen-T/F)
4.66 g/m*3
06-05-2020  12:00:00
9.44 g/m*3
08-05-2020  11:00:00
6.59 g/m*3
Windchill
(Aussen-T/F)
2.1 C
06-05-2020  06:00:00
24.94 C
08-05-2020  16:00:00
12.42 C

Die Daten stammen von einer Davis Vantage Pro 2 Wetter-Station und werden unter Linux mit der Software wview2wettercgi und aufbereitet. Alle Angaben erfolgen ohne Gewähr für ihre Vollständigkeit oder Richtigkeit.
Kontakt: Rainer Krienke krienke@uni-koblenz.de . Meine Webseiten an der Uni Koblenz oder privat.
Version: $Revision: 0.78 $